Location: Stoke Bliss
(52.2667°N, 2.5167°W)
Time: 14:24:18
(UTC+00:00)

Cosmos 1844 - Pass Details

Date: 03 March 2021
Orbit: 822 x 868 km, 70.9° (Epoch: 13 April)

Event Time Altitude Azimuth Distance (km) Brightness Sun altitude
Rises 18:31:26 0° 329° (NNW) 3,465 7.3 -6.6°
Reaches altitude 10° 18:34:00 10° 335° (NNW) 2,521 6.5 -7.0°
Maximum altitude 18:39:39 51° 51° (NE) 1,077 4.0 -7.9°
Drops below altitude 10° 18:45:13 10° 127° (SE) 2,486 5.7 -8.7°
Enters shadow 18:47:05 - 131° (SE) 3,173 6.2 -9.0°
